SCP
0 0 0 0 0 0 0 0 0 -0 -0 0 0 0 0 0 0 0 0 0 0 0 0 -0 -0 -0 -0 -0 -0 -0 -0 -0 -0 -0 -0 -0 -0 -0 -0 -0 -0 -0 -0 -0 -0 -0 -0 -0 -0
0 0 0 0 0 0 0 0 0 0 -0 -0 0 0 0 0 0 0 0 0 -0 0 0 0 -0 -0 -0 -0 -0 -0 -0 -0 -0 -0 -0 -0 -0 -0 -0 -0 -0 -0 -0 -0 -0 -0 -0 -0 -0
0 0 0 0 0 0 0 0 0 0 0 0 -0 0 0 0 0 0 0 -0 -0 -0 0 0 -0 0 -0 0 -0 0 -0 0 0 0 0 -0 -0 -0 -0 -0 -0 -0 -0 -0 -0 -0 -0 -0 -0
0 0 0 0 0 0 0 0 0 0 0 0 0 0 0 -0 0 0 0 0 0 -0 0 -0 -0 -0 -0 -0 0 -0 0 0 0 0 0 0 0 0 -0 -0 -0 0 -0 -0 -0 -0 -0 -0 -0
0 0 0 0 0 0 0 0 0 0 0 0 0 0 0 0 0 0 0 0 -0 0 0 0 -0 -0 -0 -0 -0 -0 0 0 0 0 0 0 0 0 0 -0 0 0 -0 -0 -0 -0 -0 -0 -0
0 0 0 0 0 0 0 0 0 0 0 0 0 0 0 0 0 0 0 0 0 0 0 0 0 -0 -0 -0 -0 -0 0 0 0 0 0 0 0 0 0 -0 -0 0 -0 -0 -0 -0 -0 -0 -0
0 0 0 0 0 0 0 0 0 0 0 0 0 0 0 0 0 0 0 0 0 0 0 0 0 0 -0 -0 0 0 0 0 0 0 -0 -0 -0 0 0 0 0 -0 -0 -0 -0 -0 -0 -0 -0
0 0 0 0 0 0 0 0 0 0 0 0 0 0 0 0 0 0 0 0 0 0 0 0 0 0 0 0 0 0 0 0 0 0 0 0 0 0 0 0 0 0 -0 -0 -0 -0 -0 -0 -0
0 0 0 0 0 0 0 0 0 0 0 0 0 0 0 0 0 0 0 0 0 0 0 0 0 0 0 0 0 0 0 0 0 0 0 0 0 0 0 0 0 0 0 0 0 0 0 0 -0
0 0 0 0 0 0 0 0 0 0 0 0 0 0 0 0 0 0 0 0 0 0 0 0 0 0 0 0 0 0 0 0 0 0 0 0 0 0 0 0 -0 -0 0 0 0 0 0 0 0
0 0 0 0 0 0 0 0 0 0 0 0 0 0 -0 0 0 0 0 0 0 0 0 0 0 0 0 0 0 0 0 0 0 0 0 0 0 0 0 0 0 0 0 0 0 0 0 0 0
0 0 0 0 0 0 0 0 0 0 0 0 0 -0 -0 -0 0 0 0 0 0 0 0 0 0 0 0 0 0 0 0 0 0 0 0 0 0 0 0 0 0 0 0 0 0 0 0 0 0
0 0 0 0 0 0 0 0 0 0 0 0 0 -0 -0 0 0 0 0 0 0 0 0 0 0 0 0 0 0 0 0 0 0 0 0 0 0 0 0 0 0 0 0 0 0 0 0 0 0
0 0 0 0 0 0 0 0 0 0 0 0 0 -0 -0 -0 -0 0 0 0 0 0 0 0 0 0 0 0 0 0 0 0 0 0 0 0 0 0 0 0 0 0 0 0 0 0 0 0 0
0 0 0 0 0 0 0 0 0 0 0 -0 0 0 -0 -0 -0 -0 -0 0 0 0 0 0 0 0 0 0 0 0 0 0 0 0 0 0 0 0 0 0 0 0 0 0 0 0 0 0 0
0 0 0 0 0 0 0 0 0 0 0 0 0 0 0 -0 -0 0 0 0 0 0 0 0 0 0 0 0 0 0 0 0 0 0 0 0 0 0 0 0 0 0 0 0 0 0 0 0 0
0 0 0 0 0 0 0 0 0 0 0 0 0 0 0 0 0 0 0 0 0 0 0 0 0 0 0 0 0 0 0 0 0 0 0 0 0 0 0 0 0 0 0 0 0 0 0 0 0
0 0 0 0 0 0 0 0 0 0 0 0 0 0 0 0 -0 0 0 0 0 0 0 0 0 0 0 0 0 0 0 0 0 0 0 0 0 0 0 0 0 0 0 0 0 0 0 0 0
0 0 0 0 0 0 0 0 0 0 0 0 0 0 0 0 0 0 0 0 0 0 0 0 0 0 0 0 0 0 0 0 0 0 0 0 0 0 0 0 0 0 0 0 0 0 0 0 0
0 0 0 0 0 0 0 0 0 0 0 0 0 0 0 0 0 0 0 0 0 0 0 0 0 0 0 0 0 0 0 0 0 0 0 0 0 0 0 0 0 0 0 0 0 0 0 0 0
0 0 0 0 0 0 0 0 0 0 0 0 0 0 0 0 0 0 0 0 0 0 0 0 0 0 0 0 0 0 0 0 0 0 0 0 0 0 0 0 0 0 0 0 0 0 0 0 0
0 0 0 0 0 0 0 0 0 0 0 0 0 0 0 0 0 0 0 0 0 0 0 0 0 0 0 0 0 0 0 0 0 0 0 0 0 0 0 0 0 0 0 0 0 0 0 0 0
0 0 0 0 0 0 0 0 0 0 0 0 0 0 0 0 0 0 0 0 0 0 0 0 0 0 0 0 0 0 0 0 0 0 0 0 0 0 0 0 0 0 0 0 0 0 0 0 0
0 0 0 0 0 0 0 0 0 0 0 0 0 0 0 0 0 0 0 0 0 0 0 0 0 0 0 0 0 0 0 0 0 0 0 0 0 0 0 0 0 0 0 0 0 0 0 0 0
0 0 0 0 0 0 0 0 0 0 0 0 0 0 0 0 0 0 0 0 0 0 0 0 0 0 0 0 0 0 0 0 0 0 0 0 0 0 0 0 0 0 0 0 0 0 0 0 0
0 0 0 0 0 0 0 0 0 0 0 0 0 0 0 0 0 0 0 0 0 0 0 0 0 0 0 0 0 0 0 0 0 0 0 0 0 0 0 0 0 0 0 0 0 0 0 0 0
0 0 0 0 0 0 0 0 0 0 0 0 0 0 0 0 0 0 0 0 0 0 0 0 0 0 0 0 0 0 0 0 0 0 0 0 0 0 0 0 0 0 0 0 0 0 0 0 0
0 0 0 0 0 0 0 0 0 0 0 0 0 0 0 0 0 0 0 0 0 0 0 0 0 0 0 0 0 0 0 0 0 0 0 0 0 0 0 0 0 0 0 0 0 0 0 0 0
0 0 0 0 0 0 0 0 0 0 0 0 0 0 0 0 0 0 0 0 0 0 0 0 0 0 0 0 0 0 0 0 0 0 0 0 0 0 0 0 0 0 0 0 0 0 0 0 0
0 0 0 0 0 0 0 0 0 0 0 0 0 0 0 0 0 0 0 0 0 0 0 0 0 0 0 0 0 0 0 0 0 0 0 0 0 0 0 0 0 0 0 0 0 0 0 0 0
Wind_Speed_500mb
20 22 18 9 5 5 2 4 1 5 5 3 7 7 7 9 2 4 36 26 43 36 26 28 24 24 18 20 16 12 14 15 12 10 16 16 17 17 20 19 21 27 27 33 31 29 23 26 19
20 20 12 4 7 4 4 2 7 6 15 26 15 9 8 6 7 25 35 39 38 32 32 25 24 22 20 19 15 10 12 12 14 15 15 15 16 16 18 18 21 25 29 35 33 29 25 23 20
19 17 5 7 4 6 6 6 8 9 18 9 9 10 6 4 12 37 35 44 37 34 31 26 22 22 19 16 12 9 11 12 12 14 15 15 14 15 18 17 20 25 34 34 32 30 25 22 20
14 7 9 6 6 6 5 5 9 20 3 7 18 13 8 6 39 17 46 42 41 33 33 23 26 22 19 17 16 7 10 13 13 15 14 14 14 15 19 17 22 27 34 31 31 26 26 23 22
16 6 7 4 6 4 4 8 21 10 12 11 10 10 9 37 16 38 41 41 33 25 31 24 25 21 17 17 14 10 13 14 13 16 14 14 15 16 19 20 24 31 33 30 27 26 27 24 26
7 6 6 4 7 5 2 16 14 7 9 14 13 16 16 23 25 48 40 37 25 24 32 26 24 22 19 17 13 11 13 13 13 13 12 15 16 18 19 22 23 31 29 29 23 23 26 26 30
11 7 6 7 4 4 8 19 10 11 13 8 18 10 14 32 38 43 39 34 26 21 30 29 27 24 20 15 14 12 12 11 11 12 12 13 14 19 20 22 23 25 24 23 22 22 26 26 24
9 8 8 6 6 7 10 13 6 11 8 16 16 10 11 45 52 47 43 36 28 25 26 32 26 20 15 19 13 11 12 12 13 14 14 13 13 13 19 19 22 17 17 15 17 21 24 25 24
9 7 4 7 12 5 14 7 9 7 15 14 13 9 9 50 58 54 50 42 32 28 26 30 26 22 18 15 8 9 11 12 13 15 15 16 17 17 16 16 15 14 17 19 19 22 24 22 24
7 7 15 7 7 5 11 8 21 10 9 10 12 15 21 54 61 63 58 50 38 32 28 20 22 21 16 12 10 10 11 12 13 15 16 16 15 16 16 16 17 18 19 20 21 22 23 24 25
7 9 8 7 6 6 11 9 13 15 6 17 22 30 41 59 62 61 54 42 36 31 26 20 15 18 15 13 10 10 10 11 12 14 15 15 13 14 16 17 19 20 23 22 23 24 24 24 24
4 5 9 7 8 8 9 12 8 17 4 3 17 23 47 62 64 62 53 46 39 32 24 20 19 17 14 14 11 9 9 10 12 13 14 16 16 17 19 21 23 24 27 26 27 26 27 28 28
6 5 8 7 6 6 7 6 6 12 17 14 12 31 48 58 60 57 47 41 37 33 26 20 18 17 18 14 12 10 10 10 12 13 14 16 16 17 20 23 26 27 29 27 27 28 29 30 31
8 7 7 6 6 5 6 3 4 5 19 16 22 36 47 54 59 59 54 47 41 33 26 21 19 18 18 15 12 11 10 11 12 13 14 16 18 18 21 23 26 28 28 29 28 28 30 32 32
9 4 0 4 7 4 5 5 11 7 14 21 29 38 45 51 55 56 53 49 41 34 28 23 20 19 18 17 14 12 11 13 14 14 15 17 19 20 22 25 28 30 30 28 29 31 32 34 36
6 7 1 2 9 2 6 10 5 9 19 23 30 37 44 50 48 49 49 45 42 38 33 27 23 19 17 17 15 13 12 14 15 16 16 18 20 23 24 25 27 30 32 30 31 35 37 39 40
9 5 7 4 7 5 4 7 2 7 19 20 29 35 41 46 48 48 48 45 43 41 36 31 26 21 18 18 19 16 15 16 17 18 18 19 21 24 24 24 24 28 31 32 31 33 31 36 40
11 7 6 6 6 3 4 14 8 8 16 20 28 35 42 47 50 47 47 45 45 43 40 33 28 25 22 20 21 19 18 18 19 20 20 20 21 23 24 22 22 26 29 31 30 29 32 32 34
9 7 7 5 1 5 8 12 14 15 15 21 27 36 42 48 41 41 44 45 47 49 46 41 34 30 26 21 20 20 19 21 22 24 24 24 23 24 24 23 22 26 27 27 28 28 28 32 31
7 6 8 1 3 4 7 19 10 1 5 3 16 32 39 42 41 45 47 48 49 49 49 46 39 31 24 19 14 18 19 21 22 23 24 24 24 24 24 24 23 26 29 28 27 23 26 26 21
8 10 8 5 4 6 6 14 4 5 14 17 15 7 24 44 43 45 49 50 49 52 52 48 40 33 26 21 19 20 24 23 25 25 25 26 26 26 26 26 27 28 29 27 26 24 19 16 8
10 5 7 10 7 6 4 8 6 3 7 12 26 24 9 21 42 40 44 48 48 48 48 45 40 36 31 25 20 20 21 22 22 23 25 27 28 29 29 28 28 30 31 32 29 28 25 19 12
6 5 9 6 9 4 1 7 11 2 5 7 20 26 18 7 31 35 38 40 41 41 44 44 42 40 35 28 22 21 23 23 22 25 27 29 30 31 31 31 31 31 33 34 34 33 29 24 19
17 12 12 8 6 3 6 7 10 6 3 3 10 23 20 20 23 25 28 31 34 38 41 42 43 43 39 33 26 23 23 24 25 26 27 29 30 32 33 35 36 36 35 35 35 34 31 27 23
6 10 4 6 4 9 2 4 13 2 3 2 6 20 23 24 26 26 22 21 25 31 34 35 38 41 40 35 29 25 24 26 25 25 26 27 30 32 35 37 37 38 39 39 39 37 35 33 30
8 9 10 13 7 4 4 11 6 4 6 7 14 22 29 30 28 27 23 20 20 22 24 26 28 34 37 35 30 27 27 28 29 28 28 29 29 28 33 36 39 41 42 42 42 41 39 36 34
9 6 8 14 4 5 5 9 0 4 4 8 16 25 31 33 30 28 25 22 19 18 18 20 22 27 32 32 31 29 28 30 32 31 31 32 32 32 35 37 40 42 44 45 45 43 42 39 37
5 6 7 5 6 7 7 9 8 13 13 9 11 21 25 29 30 29 26 22 19 18 17 16 18 21 25 29 31 31 30 31 32 35 35 34 34 36 37 39 42 44 46 47 47 46 44 42 39
3 1 8 7 5 10 4 10 6 10 15 17 18 20 23 25 26 25 23 20 17 14 11 12 14 16 20 25 28 30 31 32 34 37 36 37 38 39 40 40 43 46 47 48 48 47 45 44 42
1 7 8 7 9 3 5 10 2 3 15 35 30 21 18 18 18 18 17 15 12 9 8 8 9 11 14 17 21 25 28 31 35 36 36 38 40 42 43 43 46 48 49 49 49 48 46 45 42
Wind_Direction_500mb
144 143 146 144 87 63 214 212 67 134 120 115 120 140 128 70 107 139 149 150 150 150 148 141 152 134 140 132 141 144 125 114 118 107 73 72 80 77 78 70 82 96 93 97 101 96 91 76 66
150 145 139 121 94 93 249 222 200 154 129 113 95 81 52 85 100 138 146 150 148 148 148 150 147 142 141 129 138 138 136 126 110 92 91 81 76 81 84 74 88 93 94 101 107 102 98 91 77
148 146 113 91 108 167 193 197 148 122 128 126 107 73 72 80 131 141 147 148 145 149 146 148 149 130 134 145 147 131 135 109 96 89 82 75 79 86 90 78 92 97 96 107 113 112 107 103 94
147 137 67 89 194 226 200 166 147 137 132 134 132 84 91 167 138 145 149 148 144 148 139 148 142 143 152 163 134 146 113 101 95 79 76 73 75 80 91 89 95 98 98 108 116 114 117 108 101
151 107 66 74 270 255 249 146 152 142 138 137 146 146 101 139 146 150 153 154 160 142 141 143 151 153 152 145 151 175 118 97 87 85 78 75 75 83 94 94 102 103 104 112 121 126 122 120 107
105 94 81 207 253 259 222 165 159 130 139 145 117 125 148 163 158 156 157 154 151 143 146 151 152 162 163 159 169 162 118 104 91 102 82 80 80 86 100 98 107 112 112 120 128 121 126 120 109
125 93 189 184 235 283 196 162 163 156 148 180 149 120 156 165 159 161 159 155 156 154 162 154 164 170 179 170 170 132 106 85 78 79 73 67 93 98 101 104 106 113 117 119 114 118 123 126 119
142 94 132 226 195 245 163 156 171 167 167 150 164 172 181 173 163 164 163 166 169 165 166 158 168 169 173 180 146 122 96 90 81 78 78 85 89 92 112 118 116 120 125 118 119 119 130 132 129
142 73 173 220 165 206 161 139 149 155 143 168 177 157 163 171 165 168 168 173 177 171 170 165 171 180 187 144 137 110 101 96 88 83 82 87 95 97 102 109 115 115 110 107 111 117 125 132 136
114 128 209 201 190 173 175 173 163 155 152 191 182 179 161 170 171 174 174 177 179 175 173 177 179 184 158 149 140 123 111 103 96 91 87 89 97 101 97 89 92 102 108 111 115 122 128 132 136
169 179 186 210 176 139 153 145 171 146 226 211 208 184 169 175 179 181 180 183 178 177 177 175 174 163 159 157 152 137 125 114 107 101 95 93 97 104 106 105 106 108 109 111 113 118 124 133 139
146 210 170 160 166 141 157 152 173 203 200 187 219 200 177 182 185 186 184 183 180 178 178 179 178 181 173 163 154 144 135 125 117 110 105 103 99 104 109 109 109 110 108 109 108 113 116 122 125
157 178 172 149 156 158 168 196 214 237 229 232 204 186 184 186 189 189 189 184 182 182 180 181 185 186 178 168 157 149 142 134 127 121 116 114 110 111 111 113 112 112 109 109 112 113 115 118 120
160 150 150 163 151 151 170 180 201 234 215 199 189 188 186 190 192 190 191 190 188 184 182 178 176 174 172 171 165 158 154 145 138 131 125 122 119 117 117 117 117 114 112 114 115 116 117 115 114
120 150 2 202 168 124 156 253 230 212 179 186 183 188 188 193 196 197 194 192 191 188 185 180 176 173 174 177 175 167 161 155 147 141 134 130 127 125 123 123 122 118 117 117 119 118 116 114 112
81 56 121 193 150 167 144 270 141 209 191 184 187 190 194 198 202 201 201 197 193 194 191 187 184 181 182 184 182 178 173 165 158 151 145 139 137 134 132 130 128 124 121 120 121 119 118 115 112
11 203 206 287 185 128 145 254 131 182 186 190 195 196 199 201 206 205 205 203 199 197 197 195 192 189 188 188 188 186 181 174 169 163 157 151 146 145 142 138 137 132 129 128 126 124 122 119 114
196 202 230 234 191 103 151 258 245 165 192 207 204 204 206 207 209 205 205 204 205 203 202 203 200 196 195 195 193 192 189 183 179 175 170 165 160 156 154 152 152 147 144 140 138 134 127 122 118
133 154 180 181 100 161 232 263 259 255 228 229 224 215 212 214 212 212 209 206 204 206 206 204 204 204 207 206 204 203 200 194 188 184 181 177 173 171 170 169 167 162 158 154 151 147 139 129 123
148 148 230 140 81 145 10 281 274 199 104 234 250 239 228 220 214 212 209 208 206 207 207 207 208 210 211 211 217 216 213 206 200 196 192 189 185 181 182 180 181 178 172 170 165 165 153 142 135
180 177 190 193 89 62 319 292 157 67 96 60 38 309 238 227 215 207 208 208 207 207 207 207 209 210 209 213 221 222 216 211 209 205 201 198 196 194 192 190 190 192 187 188 183 181 180 169 160
186 205 123 129 102 220 1 264 296 147 122 47 21 19 358 219 207 207 208 209 209 208 206 208 211 212 212 217 230 238 236 231 222 214 211 208 206 204 202 199 198 200 201 198 201 200 202 209 226
167 86 101 93 101 63 351 81 262 170 164 5 6 21 37 131 184 196 205 209 210 207 206 208 211 214 216 223 236 242 233 228 223 221 219 216 214 212 210 209 208 208 209 209 212 215 219 228 241
151 79 55 59 87 43 235 148 275 183 125 349 4 33 58 97 139 162 179 193 202 203 205 209 212 216 218 225 237 244 240 237 231 227 226 226 224 222 219 218 216 216 216 217 220 222 227 231 232
86 94 19 357 2 217 186 85 247 138 74 93 32 47 71 96 114 127 143 164 184 195 201 207 212 217 221 228 239 244 243 240 237 236 236 235 234 233 231 229 226 224 223 223 224 227 231 233 237
172 150 162 198 196 199 75 230 259 99 104 97 83 82 87 95 104 114 120 132 151 172 189 201 209 216 224 232 240 243 243 242 241 240 239 237 236 236 237 236 234 231 229 227 227 228 230 232 234
186 187 135 104 56 48 204 278 268 131 110 109 97 93 85 89 97 105 114 123 136 156 173 190 205 216 226 233 238 243 247 248 245 244 246 242 237 235 236 236 235 235 235 233 232 232 233 234 236
137 155 92 3 141 231 277 279 226 196 186 156 117 105 98 97 98 102 110 120 133 149 168 187 203 215 225 233 238 242 249 252 248 246 249 249 245 242 240 239 238 237 236 236 235 235 235 235 236
113 11 47 108 112 167 169 258 194 194 174 163 151 127 111 102 99 98 102 108 116 130 155 186 204 218 227 234 240 245 250 250 247 248 253 255 251 246 246 246 244 241 239 238 237 236 236 236 236
52 194 161 134 228 78 145 268 0 265 164 158 152 135 119 108 106 107 110 114 126 140 163 185 198 214 226 236 244 250 251 253 253 255 257 257 254 249 249 252 248 243 241 239 238 237 237 236 236
Wind_Speed_850mb
20 22 18 9 5 5 2 4 1 5 5 3 7 7 7 9 2 4 36 26 43 36 26 28 24 24 18 20 16 12 14 15 12 10 16 16 17 17 20 19 21 27 27 33 31 29 23 26 19
20 20 12 4 7 4 4 2 7 6 15 26 15 9 8 6 7 25 35 39 38 32 32 25 24 22 20 19 15 10 12 12 14 15 15 15 16 16 18 18 21 25 29 35 33 29 25 23 20
19 17 5 7 4 6 6 6 8 9 18 9 9 10 6 4 12 37 35 44 37 34 31 26 22 22 19 16 12 9 11 12 12 14 15 15 14 15 18 17 20 25 34 34 32 30 25 22 20
14 7 9 6 6 6 5 5 9 20 3 7 18 13 8 6 39 17 46 42 41 33 33 23 26 22 19 17 16 7 10 13 13 15 14 14 14 15 19 17 22 27 34 31 31 26 26 23 22
16 6 7 4 6 4 4 8 21 10 12 11 10 10 9 37 16 38 41 41 33 25 31 24 25 21 17 17 14 10 13 14 13 16 14 14 15 16 19 20 24 31 33 30 27 26 27 24 26
7 6 6 4 7 5 2 16 14 7 9 14 13 16 16 23 25 48 40 37 25 24 32 26 24 22 19 17 13 11 13 13 13 13 12 15 16 18 19 22 23 31 29 29 23 23 26 26 30
11 7 6 7 4 4 8 19 10 11 13 8 18 10 14 32 38 43 39 34 26 21 30 29 27 24 20 15 14 12 12 11 11 12 12 13 14 19 20 22 23 25 24 23 22 22 26 26 24
9 8 8 6 6 7 10 13 6 11 8 16 16 10 11 45 52 47 43 36 28 25 26 32 26 20 15 19 13 11 12 12 13 14 14 13 13 13 19 19 22 17 17 15 17 21 24 25 24
9 7 4 7 12 5 14 7 9 7 15 14 13 9 9 50 58 54 50 42 32 28 26 30 26 22 18 15 8 9 11 12 13 15 15 16 17 17 16 16 15 14 17 19 19 22 24 22 24
7 7 15 7 7 5 11 8 21 10 9 10 12 15 21 54 61 63 58 50 38 32 28 20 22 21 16 12 10 10 11 12 13 15 16 16 15 16 16 16 17 18 19 20 21 22 23 24 25
7 9 8 7 6 6 11 9 13 15 6 17 22 30 41 59 62 61 54 42 36 31 26 20 15 18 15 13 10 10 10 11 12 14 15 15 13 14 16 17 19 20 23 22 23 24 24 24 24
4 5 9 7 8 8 9 12 8 17 4 3 17 23 47 62 64 62 53 46 39 32 24 20 19 17 14 14 11 9 9 10 12 13 14 16 16 17 19 21 23 24 27 26 27 26 27 28 28
6 5 8 7 6 6 7 6 6 12 17 14 12 31 48 58 60 57 47 41 37 33 26 20 18 17 18 14 12 10 10 10 12 13 14 16 16 17 20 23 26 27 29 27 27 28 29 30 31
8 7 7 6 6 5 6 3 4 5 19 16 22 36 47 54 59 59 54 47 41 33 26 21 19 18 18 15 12 11 10 11 12 13 14 16 18 18 21 23 26 28 28 29 28 28 30 32 32
9 4 0 4 7 4 5 5 11 7 14 21 29 38 45 51 55 56 53 49 41 34 28 23 20 19 18 17 14 12 11 13 14 14 15 17 19 20 22 25 28 30 30 28 29 31 32 34 36
6 7 1 2 9 2 6 10 5 9 19 23 30 37 44 50 48 49 49 45 42 38 33 27 23 19 17 17 15 13 12 14 15 16 16 18 20 23 24 25 27 30 32 30 31 35 37 39 40
9 5 7 4 7 5 4 7 2 7 19 20 29 35 41 46 48 48 48 45 43 41 36 31 26 21 18 18 19 16 15 16 17 18 18 19 21 24 24 24 24 28 31 32 31 33 31 36 40
11 7 6 6 6 3 4 14 8 8 16 20 28 35 42 47 50 47 47 45 45 43 40 33 28 25 22 20 21 19 18 18 19 20 20 20 21 23 24 22 22 26 29 31 30 29 32 32 34
9 7 7 5 1 5 8 12 14 15 15 21 27 36 42 48 41 41 44 45 47 49 46 41 34 30 26 21 20 20 19 21 22 24 24 24 23 24 24 23 22 26 27 27 28 28 28 32 31
7 6 8 1 3 4 7 19 10 1 5 3 16 32 39 42 41 45 47 48 49 49 49 46 39 31 24 19 14 18 19 21 22 23 24 24 24 24 24 24 23 26 29 28 27 23 26 26 21
8 10 8 5 4 6 6 14 4 5 14 17 15 7 24 44 43 45 49 50 49 52 52 48 40 33 26 21 19 20 24 23 25 25 25 26 26 26 26 26 27 28 29 27 26 24 19 16 8
10 5 7 10 7 6 4 8 6 3 7 12 26 24 9 21 42 40 44 48 48 48 48 45 40 36 31 25 20 20 21 22 22 23 25 27 28 29 29 28 28 30 31 32 29 28 25 19 12
6 5 9 6 9 4 1 7 11 2 5 7 20 26 18 7 31 35 38 40 41 41 44 44 42 40 35 28 22 21 23 23 22 25 27 29 30 31 31 31 31 31 33 34 34 33 29 24 19
17 12 12 8 6 3 6 7 10 6 3 3 10 23 20 20 23 25 28 31 34 38 41 42 43 43 39 33 26 23 23 24 25 26 27 29 30 32 33 35 36 36 35 35 35 34 31 27 23
6 10 4 6 4 9 2 4 13 2 3 2 6 20 23 24 26 26 22 21 25 31 34 35 38 41 40 35 29 25 24 26 25 25 26 27 30 32 35 37 37 38 39 39 39 37 35 33 30
8 9 10 13 7 4 4 11 6 4 6 7 14 22 29 30 28 27 23 20 20 22 24 26 28 34 37 35 30 27 27 28 29 28 28 29 29 28 33 36 39 41 42 42 42 41 39 36 34
9 6 8 14 4 5 5 9 0 4 4 8 16 25 31 33 30 28 25 22 19 18 18 20 22 27 32 32 31 29 28 30 32 31 31 32 32 32 35 37 40 42 44 45 45 43 42 39 37
5 6 7 5 6 7 7 9 8 13 13 9 11 21 25 29 30 29 26 22 19 18 17 16 18 21 25 29 31 31 30 31 32 35 35 34 34 36 37 39 42 44 46 47 47 46 44 42 39
3 1 8 7 5 10 4 10 6 10 15 17 18 20 23 25 26 25 23 20 17 14 11 12 14 16 20 25 28 30 31 32 34 37 36 37 38 39 40 40 43 46 47 48 48 47 45 44 42
1 7 8 7 9 3 5 10 2 3 15 35 30 21 18 18 18 18 17 15 12 9 8 8 9 11 14 17 21 25 28 31 35 36 36 38 40 42 43 43 46 48 49 49 49 48 46 45 42
Wind_Direction_850mb
144 143 146 144 87 63 214 212 67 134 120 115 120 140 128 70 107 139 149 150 150 150 148 141 152 134 140 132 141 144 125 114 118 107 73 72 80 77 78 70 82 96 93 97 101 96 91 76 66
150 145 139 121 94 93 249 222 200 154 129 113 95 81 52 85 100 138 146 150 148 148 148 150 147 142 141 129 138 138 136 126 110 92 91 81 76 81 84 74 88 93 94 101 107 102 98 91 77
148 146 113 91 108 167 193 197 148 122 128 126 107 73 72 80 131 141 147 148 145 149 146 148 149 130 134 145 147 131 135 109 96 89 82 75 79 86 90 78 92 97 96 107 113 112 107 103 94
147 137 67 89 194 226 200 166 147 137 132 134 132 84 91 167 138 145 149 148 144 148 139 148 142 143 152 163 134 146 113 101 95 79 76 73 75 80 91 89 95 98 98 108 116 114 117 108 101
151 107 66 74 270 255 249 146 152 142 138 137 146 146 101 139 146 150 153 154 160 142 141 143 151 153 152 145 151 175 118 97 87 85 78 75 75 83 94 94 102 103 104 112 121 126 122 120 107
105 94 81 207 253 259 222 165 159 130 139 145 117 125 148 163 158 156 157 154 151 143 146 151 152 162 163 159 169 162 118 104 91 102 82 80 80 86 100 98 107 112 112 120 128 121 126 120 109
125 93 189 184 235 283 196 162 163 156 148 180 149 120 156 165 159 161 159 155 156 154 162 154 164 170 179 170 170 132 106 85 78 79 73 67 93 98 101 104 106 113 117 119 114 118 123 126 119
142 94 132 226 195 245 163 156 171 167 167 150 164 172 181 173 163 164 163 166 169 165 166 158 168 169 173 180 146 122 96 90 81 78 78 85 89 92 112 118 116 120 125 118 119 119 130 132 129
142 73 173 220 165 206 161 139 149 155 143 168 177 157 163 171 165 168 168 173 177 171 170 165 171 180 187 144 137 110 101 96 88 83 82 87 95 97 102 109 115 115 110 107 111 117 125 132 136
114 128 209 201 190 173 175 173 163 155 152 191 182 179 161 170 171 174 174 177 179 175 173 177 179 184 158 149 140 123 111 103 96 91 87 89 97 101 97 89 92 102 108 111 115 122 128 132 136
169 179 186 210 176 139 153 145 171 146 226 211 208 184 169 175 179 181 180 183 178 177 177 175 174 163 159 157 152 137 125 114 107 101 95 93 97 104 106 105 106 108 109 111 113 118 124 133 139
146 210 170 160 166 141 157 152 173 203 200 187 219 200 177 182 185 186 184 183 180 178 178 179 178 181 173 163 154 144 135 125 117 110 105 103 99 104 109 109 109 110 108 109 108 113 116 122 125
157 178 172 149 156 158 168 196 214 237 229 232 204 186 184 186 189 189 189 184 182 182 180 181 185 186 178 168 157 149 142 134 127 121 116 114 110 111 111 113 112 112 109 109 112 113 115 118 120
160 150 150 163 151 151 170 180 201 234 215 199 189 188 186 190 192 190 191 190 188 184 182 178 176 174 172 171 165 158 154 145 138 131 125 122 119 117 117 117 117 114 112 114 115 116 117 115 114
120 150 2 202 168 124 156 253 230 212 179 186 183 188 188 193 196 197 194 192 191 188 185 180 176 173 174 177 175 167 161 155 147 141 134 130 127 125 123 123 122 118 117 117 119 118 116 114 112
81 56 121 193 150 167 144 270 141 209 191 184 187 190 194 198 202 201 201 197 193 194 191 187 184 181 182 184 182 178 173 165 158 151 145 139 137 134 132 130 128 124 121 120 121 119 118 115 112
11 203 206 287 185 128 145 254 131 182 186 190 195 196 199 201 206 205 205 203 199 197 197 195 192 189 188 188 188 186 181 174 169 163 157 151 146 145 142 138 137 132 129 128 126 124 122 119 114
196 202 230 234 191 103 151 258 245 165 192 207 204 204 206 207 209 205 205 204 205 203 202 203 200 196 195 195 193 192 189 183 179 175 170 165 160 156 154 152 152 147 144 140 138 134 127 122 118
133 154 180 181 100 161 232 263 259 255 228 229 224 215 212 214 212 212 209 206 204 206 206 204 204 204 207 206 204 203 200 194 188 184 181 177 173 171 170 169 167 162 158 154 151 147 139 129 123
148 148 230 140 81 145 10 281 274 199 104 234 250 239 228 220 214 212 209 208 206 207 207 207 208 210 211 211 217 216 213 206 200 196 192 189 185 181 182 180 181 178 172 170 165 165 153 142 135
180 177 190 193 89 62 319 292 157 67 96 60 38 309 238 227 215 207 208 208 207 207 207 207 209 210 209 213 221 222 216 211 209 205 201 198 196 194 192 190 190 192 187 188 183 181 180 169 160
186 205 123 129 102 220 1 264 296 147 122 47 21 19 358 219 207 207 208 209 209 208 206 208 211 212 212 217 230 238 236 231 222 214 211 208 206 204 202 199 198 200 201 198 201 200 202 209 226
167 86 101 93 101 63 351 81 262 170 164 5 6 21 37 131 184 196 205 209 210 207 206 208 211 214 216 223 236 242 233 228 223 221 219 216 214 212 210 209 208 208 209 209 212 215 219 228 241
151 79 55 59 87 43 235 148 275 183 125 349 4 33 58 97 139 162 179 193 202 203 205 209 212 216 218 225 237 244 240 237 231 227 226 226 224 222 219 218 216 216 216 217 220 222 227 231 232
86 94 19 357 2 217 186 85 247 138 74 93 32 47 71 96 114 127 143 164 184 195 201 207 212 217 221 228 239 244 243 240 237 236 236 235 234 233 231 229 226 224 223 223 224 227 231 233 237
172 150 162 198 196 199 75 230 259 99 104 97 83 82 87 95 104 114 120 132 151 172 189 201 209 216 224 232 240 243 243 242 241 240 239 237 236 236 237 236 234 231 229 227 227 228 230 232 234
186 187 135 104 56 48 204 278 268 131 110 109 97 93 85 89 97 105 114 123 136 156 173 190 205 216 226 233 238 243 247 248 245 244 246 242 237 235 236 236 235 235 235 233 232 232 233 234 236
137 155 92 3 141 231 277 279 226 196 186 156 117 105 98 97 98 102 110 120 133 149 168 187 203 215 225 233 238 242 249 252 248 246 249 249 245 242 240 239 238 237 236 236 235 235 235 235 236
113 11 47 108 112 167 169 258 194 194 174 163 151 127 111 102 99 98 102 108 116 130 155 186 204 218 227 234 240 245 250 250 247 248 253 255 251 246 246 246 244 241 239 238 237 236 236 236 236
52 194 161 134 228 78 145 268 0 265 164 158 152 135 119 108 106 107 110 114 126 140 163 185 198 214 226 236 244 250 251 253 253 255 257 257 254 249 249 252 248 243 241 239 238 237 237 236 236